CCA682 ZULS-VQPR

Flight info

Callsign CCA682
Flight time N/A
Altitude 32100
Route LXA B345 NONIM/N0476F320 B345 TUMLI/N0479F310 G348 PRO
Aircraft A320/M-SDE3FGHIRWY/LB1

Departure

Time 2026-04-18 08:35
Airport Lhasa Gonggar International Airport (ZULS)

Arrival

Time N/A
Airport Paro International Airport (VQPR)
Time Latitude Longitude Altitude Speed Heading
2026-04-18 08:28 29.29747 90.89196 11506 ft 23 kts 360°
2026-04-18 08:29 29.29911 90.89195 11505 ft 22 kts 360°
2026-04-18 08:29 29.29966 90.89263 11504 ft 14 kts 91°
2026-04-18 08:29 29.29967 90.89389 11501 ft 18 kts 89°
2026-04-18 08:29 29.29969 90.89545 11512 ft 21 kts 89°
2026-04-18 08:30 29.29972 90.89727 11515 ft 24 kts 89°
2026-04-18 08:30 29.29976 90.89929 11504 ft 27 kts 89°
2026-04-18 08:30 29.29978 90.90145 11514 ft 26 kts 89°
2026-04-18 08:30 29.29982 90.90358 11502 ft 28 kts 89°
2026-04-18 08:31 29.29986 90.90589 11512 ft 30 kts 89°
2026-04-18 08:31 29.29990 90.90832 11513 ft 29 kts 89°
2026-04-18 08:31 29.29992 90.91058 11511 ft 29 kts 88°
2026-04-18 08:31 29.29996 90.91297 11504 ft 29 kts 89°
2026-04-18 08:32 29.29999 90.91522 11507 ft 29 kts 89°
2026-04-18 08:32 29.30003 90.91745 11489 ft 27 kts 89°
2026-04-18 08:32 29.30006 90.91968 11488 ft 29 kts 89°
2026-04-18 08:32 29.30009 90.92191 11480 ft 27 kts 89°
2026-04-18 08:33 29.30012 90.92413 11488 ft 29 kts 89°
2026-04-18 08:33 29.30015 90.92646 11488 ft 29 kts 89°
2026-04-18 08:33 29.30017 90.92795 11488 ft 15 kts 89°
2026-04-18 08:33 29.30050 90.92902 11477 ft 14 kts 17°
2026-04-18 08:34 29.30150 90.92888 11478 ft 15 kts 324°
2026-04-18 08:34 29.30173 90.92761 11486 ft 18 kts 269°
2026-04-18 08:34 29.30171 90.92604 11488 ft 22 kts 269°
2026-04-18 08:34 29.30166 90.92249 11483 ft 77 kts 269°
2026-04-18 08:35 29.30152 90.91381 11511 ft 138 kts 269°
2026-04-18 08:35 29.30136 90.90080 11518 ft 186 kts 272°
2026-04-18 08:35 29.30131 90.88544 12012 ft 196 kts 270°
2026-04-18 08:35 29.30092 90.86968 12858 ft 202 kts 271°
2026-04-18 08:36 29.29927 90.85282 13220 ft 222 kts 261°
2026-04-18 08:36 29.29431 90.83529 13314 ft 240 kts 246°
2026-04-18 08:36 29.28810 90.81702 13440 ft 252 kts 261°
2026-04-18 08:36 29.28790 90.79694 13675 ft 255 kts 283°
2026-04-18 08:37 29.29455 90.77832 14067 ft 253 kts 305°
2026-04-18 08:37 29.30684 90.76399 14526 ft 254 kts 327°
2026-04-18 08:37 29.32307 90.75604 15140 ft 258 kts 349°
2026-04-18 08:37 29.34099 90.75592 15570 ft 261 kts 13°
2026-04-18 08:38 29.35764 90.76396 15618 ft 262 kts 36°
2026-04-18 08:38 29.37025 90.77920 15828 ft 268 kts 59°
2026-04-18 08:38 29.37668 90.79926 16357 ft 272 kts 83°
2026-04-18 08:38 29.37559 90.82096 16851 ft 277 kts 104°
2026-04-18 08:39 29.37135 90.84290 17125 ft 291 kts 97°
2026-04-18 08:39 29.36990 90.86654 17476 ft 302 kts 96°
2026-04-18 08:39 29.36591 90.89035 17995 ft 306 kts 108°
2026-04-18 08:39 29.35785 90.91304 18530 ft 309 kts 119°
2026-04-18 08:40 29.34610 90.93333 18960 ft 311 kts 131°
2026-04-18 08:40 29.33049 90.95095 19454 ft 312 kts 144°
2026-04-18 08:40 29.31240 90.96414 19958 ft 313 kts 156°
2026-04-18 08:40 29.29204 90.97282 20463 ft 313 kts 169°
2026-04-18 08:41 29.27053 90.97640 20984 ft 313 kts 181°
2026-04-18 08:41 29.24885 90.97470 21511 ft 313 kts 193°
2026-04-18 08:41 29.22791 90.96787 21985 ft 314 kts 206°
2026-04-18 08:41 29.20864 90.95617 22494 ft 314 kts 218°
2026-04-18 08:42 29.19194 90.94017 23012 ft 313 kts 230°
2026-04-18 08:42 29.17857 90.92059 23498 ft 313 kts 241°
2026-04-18 08:42 29.16909 90.89829 23938 ft 312 kts 253°
2026-04-18 08:42 29.16391 90.87427 24332 ft 312 kts 264°
2026-04-18 08:43 29.16321 90.84952 24771 ft 312 kts 276°
2026-04-18 08:43 29.16690 90.82501 25200 ft 314 kts 286°
2026-04-18 08:43 29.17311 90.80067 25394 ft 325 kts 286°
2026-04-18 08:43 29.17963 90.77537 25510 ft 338 kts 286°
2026-04-18 08:44 29.18636 90.74914 25654 ft 350 kts 287°
2026-04-18 08:44 29.19330 90.72199 25766 ft 361 kts 286°
2026-04-18 08:44 29.20046 90.69393 25890 ft 373 kts 286°
2026-04-18 08:44 29.20782 90.66498 26010 ft 384 kts 286°
2026-04-18 08:45 29.21537 90.63523 26128 ft 394 kts 286°
2026-04-18 08:45 29.22311 90.60470 26255 ft 404 kts 286°
2026-04-18 08:45 29.23101 90.57347 26376 ft 413 kts 286°
2026-04-18 08:45 29.23910 90.54150 26497 ft 422 kts 286°
2026-04-18 08:46 29.24734 90.50889 26624 ft 430 kts 286°
2026-04-18 08:46 29.25573 90.47569 26756 ft 438 kts 287°
2026-04-18 08:46 29.26557 90.44241 26869 ft 444 kts 292°
2026-04-18 08:46 29.27832 90.40993 27006 ft 450 kts 297°
2026-04-18 08:47 29.29368 90.37842 27183 ft 455 kts 301°
2026-04-18 08:47 29.30977 90.34722 27544 ft 455 kts 296°
2026-04-18 08:47 29.32128 90.31353 27963 ft 454 kts 286°
2026-04-18 08:47 29.32721 90.27810 28386 ft 454 kts 276°
2026-04-18 08:48 29.32771 90.24196 28807 ft 453 kts 270°
2026-04-18 08:48 29.32709 90.20589 29242 ft 452 kts 270°
2026-04-18 08:48 29.32674 90.16992 29678 ft 451 kts 271°
2026-04-18 08:48 29.32735 90.13404 30103 ft 449 kts 273°
2026-04-18 08:49 29.32866 90.09830 30472 ft 448 kts 274°
2026-04-18 08:49 29.33029 90.06271 30830 ft 447 kts 274°
2026-04-18 08:49 29.33195 90.02719 31191 ft 446 kts 274°
2026-04-18 08:49 29.33345 89.99175 31559 ft 445 kts 274°
2026-04-18 08:50 29.33474 89.95638 31889 ft 444 kts 273°
2026-04-18 08:50 29.33591 89.92096 31999 ft 447 kts 273°
2026-04-18 08:50 29.33701 89.88575 32017 ft 449 kts 273°
2026-04-18 08:51 29.33918 89.81418 32018 ft 450 kts 273°
2026-04-18 08:51 29.34138 89.74259 32017 ft 449 kts 273°
2026-04-18 08:52 29.34354 89.67105 32008 ft 449 kts 273°
2026-04-18 08:52 29.34562 89.59948 32006 ft 449 kts 273°
2026-04-18 08:53 29.34777 89.52795 31986 ft 449 kts 273°
2026-04-18 08:53 29.34992 89.45639 31990 ft 449 kts 273°
2026-04-18 08:54 29.35194 89.38478 31971 ft 450 kts 272°
2026-04-18 08:54 29.35032 89.31323 31970 ft 451 kts 261°
2026-04-18 08:55 29.32862 89.24581 31969 ft 456 kts 241°
2026-04-18 08:55 29.28834 89.18934 31962 ft 460 kts 230°
2026-04-18 08:56 29.24480 89.13573 31948 ft 459 kts 230°
2026-04-18 08:56 29.20131 89.08221 31939 ft 459 kts 231°
2026-04-18 08:57 29.13607 89.00200 31946 ft 459 kts 230°
2026-04-18 08:57 29.09255 88.94861 31946 ft 458 kts 230°
2026-04-18 08:58 29.04906 88.89527 31948 ft 459 kts 230°
2026-04-18 08:58 29.00553 88.84197 31968 ft 459 kts 230°
2026-04-18 08:59 28.96223 88.78901 31964 ft 459 kts 230°
2026-04-18 08:59 28.91859 88.73575 31954 ft 459 kts 231°
2026-04-18 09:00 28.87490 88.68248 32005 ft 460 kts 231°
2026-04-18 09:00 28.83115 88.62927 32018 ft 460 kts 231°
2026-04-18 09:01 28.78742 88.57607 32014 ft 459 kts 231°
2026-04-18 09:01 28.74365 88.52293 32048 ft 460 kts 231°
2026-04-18 09:02 28.69987 88.46985 32031 ft 460 kts 230°
2026-04-18 09:02 28.65595 88.41676 32011 ft 461 kts 230°
2026-04-18 09:03 28.61199 88.36357 32024 ft 461 kts 231°
2026-04-18 09:03 28.56805 88.31039 32018 ft 461 kts 231°
2026-04-18 09:04 28.52414 88.25734 32027 ft 461 kts 231°
2026-04-18 09:04 28.48012 88.20436 32031 ft 461 kts 231°
2026-04-18 09:05 28.43605 88.15148 32028 ft 461 kts 231°
2026-04-18 09:05 28.39234 88.09892 32066 ft 461 kts 231°
2026-04-18 09:06 28.34834 88.04601 32053 ft 460 kts 231°
2026-04-18 09:06 28.30435 87.99330 32073 ft 460 kts 231°
2026-04-18 09:07 28.26027 87.94062 32136 ft 460 kts 231°
2026-04-18 09:07 28.21620 87.88797 32139 ft 460 kts 231°
2026-04-18 09:08 28.17213 87.83540 32159 ft 460 kts 231°
2026-04-18 09:08 28.12799 87.78285 32162 ft 460 kts 231°
2026-04-18 09:09 28.08389 87.73033 32155 ft 460 kts 231°
2026-04-18 09:09 28.03978 87.67791 32196 ft 459 kts 231°
2026-04-18 09:10 27.99573 87.62560 32208 ft 459 kts 231°
2026-04-18 09:10 27.95163 87.57338 32223 ft 459 kts 231°
2026-04-18 09:11 27.90753 87.52125 32248 ft 458 kts 231°
2026-04-18 09:11 27.86347 87.46913 32258 ft 459 kts 231°
2026-04-18 09:12 27.81251 87.42478 32244 ft 470 kts 212°
2026-04-18 09:12 27.75184 87.39564 32260 ft 475 kts 207°
2026-04-18 09:13 27.69078 87.36756 32264 ft 473 kts 207°
2026-04-18 09:13 27.63002 87.33949 32237 ft 471 kts 207°
2026-04-18 09:14 27.56942 87.31146 32252 ft 470 kts 207°
2026-04-18 09:14 27.51913 87.28834 32218 ft 469 kts 207°
2026-04-18 09:15 27.44879 87.25600 32678 ft 468 kts 207°
2026-04-18 09:15 27.42844 87.24666 32911 ft 467 kts 208°
2026-04-18 09:15 27.39797 87.23407 33059 ft 470 kts 200°
2026-04-18 09:16 27.35441 87.23008 33065 ft 484 kts 179°
2026-04-18 09:16 27.32141 87.23904 33024 ft 495 kts 162°
2026-04-18 09:16 27.30055 87.25095 33020 ft 502 kts 150°
2026-04-18 09:16 27.26655 87.28650 33028 ft 511 kts 127°
2026-04-18 09:17 27.23481 87.34276 33033 ft 514 kts 123°
2026-04-18 09:17 27.19730 87.41125 32999 ft 515 kts 123°
2026-04-18 09:18 27.15963 87.47973 32993 ft 515 kts 123°
2026-04-18 09:18 27.12179 87.54809 32986 ft 516 kts 124°
2026-04-18 09:19 27.08373 87.61651 32974 ft 517 kts 123°
2026-04-18 09:19 27.04561 87.68506 32973 ft 518 kts 123°
2026-04-18 09:20 27.00746 87.75361 32990 ft 518 kts 123°
2026-04-18 09:20 26.96928 87.82219 32966 ft 519 kts 124°
2026-04-18 09:21 26.93108 87.89080 32971 ft 518 kts 124°
2026-04-18 09:21 26.89281 87.95931 32978 ft 519 kts 124°
2026-04-18 09:22 26.85445 88.02777 32926 ft 519 kts 124°
2026-04-18 09:22 26.81603 88.09627 32938 ft 519 kts 124°
2026-04-18 09:23 26.77760 88.16473 32944 ft 520 kts 124°
2026-04-18 09:23 26.74063 88.23437 32943 ft 523 kts 115°
2026-04-18 09:24 26.72893 88.27226 32917 ft 523 kts 103°
2026-04-18 09:24 26.72346 88.31243 32902 ft 523 kts 92°
2026-04-18 09:24 26.72212 88.35311 32650 ft 523 kts 86°
2026-04-18 09:24 26.72711 88.39304 32400 ft 515 kts 69°
2026-04-18 09:25 26.74194 88.42886 32173 ft 505 kts 53°
2026-04-18 09:25 26.76073 88.46205 31923 ft 505 kts 52°
2026-04-18 09:25 26.77990 88.49506 31676 ft 507 kts 52°
2026-04-18 09:25 26.79912 88.52831 31383 ft 509 kts 53°
2026-04-18 09:26 26.81820 88.56197 30257 ft 518 kts 53°
2026-04-18 09:26 26.83729 88.59650 29068 ft 520 kts 54°
2026-04-18 09:26 26.85614 88.63134 28006 ft 523 kts 55°
2026-04-18 09:26 26.87484 88.66620 27162 ft 521 kts 55°
2026-04-18 09:27 26.89346 88.70089 26252 ft 519 kts 55°
2026-04-18 09:27 26.91210 88.73552 25284 ft 518 kts 56°
2026-04-18 09:27 26.93079 88.77004 24293 ft 518 kts 56°
2026-04-18 09:27 26.94947 88.80441 23518 ft 513 kts 56°
2026-04-18 09:28 26.96793 88.83827 22791 ft 505 kts 56°
2026-04-18 09:28 26.98606 88.87162 22036 ft 498 kts 56°
2026-04-18 09:28 27.00353 88.90489 21131 ft 495 kts 57°
2026-04-18 09:28 27.02047 88.93852 20326 ft 491 kts 59°
2026-04-18 09:29 27.03658 88.97137 19649 ft 484 kts 59°
2026-04-18 09:29 27.05256 89.00428 18992 ft 478 kts 59°
2026-04-18 09:29 27.06838 89.03678 18331 ft 472 kts 59°
2026-04-18 09:29 27.08413 89.06885 17708 ft 465 kts 59°
2026-04-18 09:30 27.09954 89.09994 17537 ft 447 kts 59°
2026-04-18 09:30 27.11446 89.12988 17380 ft 432 kts 59°
2026-04-18 09:30 27.12891 89.15880 17076 ft 419 kts 59°
2026-04-18 09:30 27.14297 89.18687 16914 ft 406 kts 59°
2026-04-18 09:31 27.15660 89.21416 16678 ft 396 kts 59°
2026-04-18 09:31 27.17114 89.23975 16459 ft 383 kts 49°
2026-04-18 09:31 27.18955 89.26083 16228 ft 374 kts 38°
2026-04-18 09:31 27.21084 89.27689 16030 ft 364 kts 26°
2026-04-18 09:32 27.23352 89.28757 15823 ft 343 kts 14°
2026-04-18 09:32 27.25607 89.29314 15632 ft 323 kts
2026-04-18 09:32 27.27769 89.29744 15452 ft 307 kts
2026-04-18 09:32 27.29815 89.30149 15291 ft 291 kts
2026-04-18 09:33 27.31765 89.30534 15109 ft 277 kts
2026-04-18 09:33 27.33622 89.30665 14951 ft 259 kts 353°
2026-04-18 09:33 27.35323 89.30265 14816 ft 243 kts 337°
2026-04-18 09:33 27.36800 89.29437 14674 ft 234 kts 323°
2026-04-18 09:34 27.38147 89.28419 14538 ft 233 kts 324°
2026-04-18 09:34 27.39474 89.27428 14429 ft 223 kts 325°
2026-04-18 09:34 27.40746 89.26494 14290 ft 215 kts 328°
2026-04-18 09:34 27.42128 89.25869 14165 ft 215 kts 345°
2026-04-18 09:35 27.43600 89.25727 14052 ft 217 kts
2026-04-18 09:35 27.45077 89.26086 13968 ft 220 kts 20°
2026-04-18 09:35 27.46390 89.26926 13870 ft 212 kts 38°
2026-04-18 09:35 27.47383 89.28115 13856 ft 203 kts 58°
2026-04-18 09:36 27.48039 89.29515 13173 ft 205 kts 69°
2026-04-18 09:36 27.48446 89.31083 12521 ft 212 kts 79°
2026-04-18 09:36 27.48541 89.32719 12051 ft 207 kts 98°
2026-04-18 09:36 27.48061 89.34193 11643 ft 200 kts 126°
2026-04-18 09:37 27.47007 89.35255 10870 ft 212 kts 151°
2026-04-18 09:37 27.45642 89.35996 10191 ft 217 kts 150°
2026-04-18 09:37 27.44577 89.37098 9715 ft 205 kts 122°
2026-04-18 09:37 27.44132 89.38600 9215 ft 202 kts 100°
2026-04-18 09:38 27.43919 89.40145 8719 ft 197 kts 110°
2026-04-18 09:38 27.43162 89.41301 8490 ft 181 kts 151°
2026-04-18 09:38 27.41922 89.41668 7900 ft 192 kts 169°
2026-04-18 09:38 27.40707 89.42239 7663 ft 185 kts 150°
2026-04-18 09:39 27.39514 89.42995 8178 ft 208 kts 153°
2026-04-18 09:39 27.38100 89.43679 8768 ft 235 kts 158°
2026-04-18 09:39 27.36542 89.44373 9655 ft 244 kts 158°
2026-04-18 09:39 27.34938 89.45069 10680 ft 250 kts 159°
2026-04-18 09:40 27.33323 89.45845 11630 ft 255 kts 148°
2026-04-18 09:40 27.32158 89.47322 12665 ft 258 kts 112°
2026-04-18 09:40 27.31918 89.49341 13441 ft 274 kts 82°
2026-04-18 09:40 27.32360 89.51553 13708 ft 308 kts 80°
2026-04-18 09:41 27.32248 89.54086 13791 ft 346 kts 108°
2026-04-18 09:41 27.31003 89.56533 13786 ft 381 kts 134°
2026-04-18 09:41 27.28810 89.58290 13757 ft 387 kts 158°
2026-04-18 09:41 27.26263 89.58848 13761 ft 365 kts 184°
2026-04-18 09:42 27.23860 89.58242 13758 ft 347 kts 203°
2026-04-18 09:42 27.21749 89.57128 13752 ft 333 kts 207°
2026-04-18 09:42 27.19687 89.55995 13742 ft 320 kts 207°
2026-04-18 09:42 27.17765 89.54932 13742 ft 296 kts 207°
2026-04-18 09:43 27.16083 89.53811 13739 ft 268 kts 227°
2026-04-18 09:43 27.15229 89.52115 13740 ft 245 kts 263°
2026-04-18 09:43 27.15478 89.50333 13757 ft 224 kts 300°
2026-04-18 09:43 27.16434 89.49011 13768 ft 216 kts 310°
2026-04-18 09:44 27.17440 89.47759 13766 ft 217 kts 309°
2026-04-18 09:44 27.18458 89.46488 13765 ft 221 kts 310°
2026-04-18 09:44 27.19491 89.45199 13772 ft 223 kts 310°
2026-04-18 09:44 27.20535 89.43901 13774 ft 224 kts 311°
2026-04-18 09:45 27.21567 89.42624 13777 ft 219 kts 310°
2026-04-18 09:45 27.22564 89.41321 13777 ft 220 kts 303°
2026-04-18 09:45 27.23280 89.39811 13787 ft 219 kts 289°
2026-04-18 09:45 27.23745 89.38183 13798 ft 219 kts 285°
2026-04-18 09:46 27.24186 89.36556 13798 ft 214 kts 285°
2026-04-18 09:46 27.24635 89.35020 13797 ft 203 kts 291°
2026-04-18 09:46 27.25325 89.33629 13796 ft 205 kts 304°
2026-04-18 09:46 27.26272 89.32422 13796 ft 207 kts 316°
2026-04-18 09:47 27.27433 89.31462 13798 ft 208 kts 327°
2026-04-18 09:47 27.28762 89.30800 13799 ft 210 kts 340°
2026-04-18 09:47 27.30195 89.30475 13795 ft 211 kts 354°
2026-04-18 09:47 27.31668 89.30513 13804 ft 214 kts
2026-04-18 09:48 27.33143 89.30686 13801 ft 213 kts 357°
2026-04-18 09:48 27.34602 89.30499 13804 ft 210 kts 345°
2026-04-18 09:48 27.35956 89.29970 13803 ft 206 kts 331°
2026-04-18 09:48 27.37158 89.29159 13801 ft 195 kts 324°
2026-04-18 09:49 27.38281 89.28316 13804 ft 194 kts 324°
2026-04-18 09:49 27.39402 89.27480 13799 ft 193 kts 324°
2026-04-18 09:49 27.40524 89.26647 13803 ft 194 kts 325°
2026-04-18 09:49 27.41737 89.25985 13803 ft 195 kts 341°
2026-04-18 09:50 27.43056 89.25715 13773 ft 197 kts 356°
2026-04-18 09:50 27.44442 89.25864 13771 ft 200 kts 12°
2026-04-18 09:50 27.45734 89.26435 13771 ft 201 kts 28°
2026-04-18 09:50 27.46852 89.27402 13776 ft 205 kts 46°
2026-04-18 09:51 27.47677 89.28667 13883 ft 203 kts 66°
2026-04-18 09:51 27.48160 89.30129 13809 ft 198 kts 80°
2026-04-18 09:51 27.48270 89.31663 13779 ft 193 kts 97°
2026-04-18 09:51 27.48012 89.33139 13773 ft 191 kts 111°
2026-04-18 09:52 27.47417 89.34511 13155 ft 202 kts 125°
2026-04-18 09:52 27.46451 89.35694 12569 ft 212 kts 144°
2026-04-18 09:52 27.45238 89.36654 12136 ft 215 kts 142°
2026-04-18 09:52 27.44256 89.37922 11703 ft 217 kts 121°
2026-04-18 09:53 27.43684 89.39504 11249 ft 219 kts 112°
2026-04-18 09:53 27.42910 89.40949 10822 ft 216 kts 137°
2026-04-18 09:53 27.41733 89.41938 10651 ft 205 kts 148°
2026-04-18 09:53 27.40541 89.42731 10500 ft 193 kts 150°
2026-04-18 09:54 27.39411 89.43476 10341 ft 184 kts 149°
2026-04-18 09:54 27.38324 89.44222 10174 ft 183 kts 148°
2026-04-18 09:54 27.37256 89.44986 10061 ft 181 kts 148°
2026-04-18 09:54 27.36211 89.45758 9994 ft 178 kts 147°
2026-04-18 09:55 27.35181 89.46534 10277 ft 179 kts 147°
2026-04-18 09:55 27.34154 89.47318 10517 ft 179 kts 146°
2026-04-18 09:55 27.33124 89.48114 10743 ft 180 kts 146°
2026-04-18 09:55 27.32077 89.48929 11045 ft 184 kts 146°
2026-04-18 09:56 27.31023 89.49757 11433 ft 186 kts 146°
2026-04-18 09:56 27.29955 89.50598 11878 ft 188 kts 146°
2026-04-18 09:56 27.28887 89.51454 12277 ft 190 kts 145°
2026-04-18 09:56 27.27652 89.52023 12490 ft 200 kts 176°
2026-04-18 09:57 27.26263 89.51761 12696 ft 209 kts 205°
2026-04-18 09:57 27.25013 89.50814 12746 ft 226 kts 220°
2026-04-18 09:57 27.23856 89.49657 12716 ft 214 kts 223°
2026-04-18 09:57 27.22623 89.48846 12539 ft 201 kts 195°
2026-04-18 09:58 27.21282 89.48946 12347 ft 190 kts 156°
2026-04-18 09:58 27.20282 89.49867 12325 ft 192 kts 124°
2026-04-18 09:58 27.19870 89.51284 12368 ft 195 kts 92°
2026-04-18 09:58 27.20194 89.52749 12418 ft 196 kts 60°
2026-04-18 09:59 27.21151 89.53804 12471 ft 195 kts 26°
2026-04-18 09:59 27.22452 89.54101 12532 ft 192 kts 352°
2026-04-18 09:59 27.23742 89.53746 12591 ft 191 kts 339°
2026-04-18 10:00 27.26164 89.52558 12787 ft 190 kts 332°
2026-04-18 10:00 27.27367 89.51928 12869 ft 192 kts 333°
2026-04-18 10:00 27.28572 89.51297 12869 ft 191 kts 332°
2026-04-18 10:00 27.29769 89.50655 12871 ft 190 kts 329°
2026-04-18 10:01 27.30939 89.49945 12563 ft 190 kts 328°
2026-04-18 10:01 27.32082 89.49214 12214 ft 188 kts 328°
2026-04-18 10:01 27.33201 89.48477 11819 ft 186 kts 328°
2026-04-18 10:01 27.34314 89.47732 11439 ft 186 kts 328°
2026-04-18 10:02 27.35426 89.46987 11065 ft 186 kts 328°
2026-04-18 10:02 27.36539 89.46242 10730 ft 186 kts 328°
2026-04-18 10:02 27.37659 89.45473 10308 ft 192 kts 328°
2026-04-18 10:02 27.38800 89.44683 9889 ft 193 kts 327°
2026-04-18 10:03 27.39882 89.43772 9371 ft 195 kts 317°
2026-04-18 10:03 27.40766 89.42621 8936 ft 191 kts 306°
2026-04-18 10:03 27.41505 89.41452 8688 ft 174 kts 314°
2026-04-18 10:03 27.42548 89.40972 8579 ft 169 kts
2026-04-18 10:04 27.43543 89.41520 8609 ft 161 kts 57°
2026-04-18 10:04 27.43850 89.42702 8850 ft 161 kts 101°
2026-04-18 10:04 27.43307 89.43673 9196 ft 145 kts 159°
2026-04-18 10:04 27.42708 89.43745 9158 ft 2 kts 172°